Flight Track Log - Related Links

Times and Time Zones

All times are in EDT time to prevent confusion due to time zone crossing. See the N680AN flight status page for this flight to view local times or setup timezone preferences in your user account.

Time Position Orientation Groundspeed Altitude Reporting Facility
EDT Latitude Longitude Course Direction KTS MPH feet Rate Location/Type
Tue 12:36:09 PM 25.7981 -80.2767 336° Northwest 168 193 900  Level Miami Center
Tue 12:37:16 PM 25.8036 -80.2192 84° East 222 255 3,400 2,633 Climbing Miami Center
Tue 12:37:47 PM 25.8047 -80.1756 88° East 250 288 5,200 2,949 Climbing Miami Center
Tue 12:38:00 PM 26.0239 -80.3629 340° North  Level FlightAware Approximate
Tue 12:38:15 PM 25.8261 -80.1506 46° Northeast 252 290 6,300  Level Miami Center
Tue 12:38:49 PM 25.8697 -80.1542 356° North 283 326 7,000 1,400 Climbing Miami Center
Tue 12:39:00 PM 26.1044 -80.3904 343° North  Level FlightAware Approximate
Tue 12:39:15 PM 25.8967 -80.1686 334° Northwest 277 319 7,700  Level Miami Center
Tue 12:39:44 PM 25.9294 -80.1997 320° Northwest 283 326 9,500 2,900 Climbing Miami Center
Tue 12:40:00 PM 26.1852 -80.4167 North  Level FlightAware Approximate
Tue 12:40:15 PM 25.9625 -80.2167 335° Northwest 299 344 10,600  Level Miami Center
Tue 12:40:45 PM 26.0033 -80.2550 320° Northwest 334 384 11,700 1,700 Climbing Miami Center
Tue 12:41:00 PM 26.2648 -80.4407 336° Northwest  Level FlightAware Approximate
Tue 12:41:15 PM 26.0364 -80.2744 332° Northwest 347 399 12,300  Level Miami Center
Tue 12:42:15 PM 26.1183 -80.3392 325° Northwest 358 412 15,200 2,650 Climbing Miami Center
Tue 12:43:15 PM 26.2044 -80.4064 325° Northwest 369 425 17,600 1,884 Climbing Miami Center
Tue 12:44:16 PM 26.3033 -80.4650 332° Northwest 389 448 19,000 700 Climbing Miami Center
Tue 12:45:15 PM 26.4167 -80.5172 338° Northwest 406 467 19,000  Level Miami Center
Tue 12:46:15 PM 26.5097 -80.5642 336° Northwest 406 467 19,000  Level Miami Center
Tue 12:47:15 PM 26.6231 -80.6167 338° Northwest 401 461 19,000  Level Miami Center
Tue 12:48:15 PM 26.7181 -80.6614 337° Northwest 401 461 19,000  Level Miami Center
Tue 12:49:15 PM 26.8314 -80.7139 338° Northwest 396 456 19,000  Level Miami Center
Tue 12:50:15 PM 26.9369 -80.7525 342° North 396 456 19,000  Level Miami Center
Tue 12:51:16 PM 27.0467 -80.7911 343° North 391 450 19,000  Level Miami Center
Tue 12:52:16 PM 27.1519 -80.8272 343° North 396 456 19,000  Level Miami Center
Tue 12:53:16 PM 27.2575 -80.8658 342° North 396 456 19,000  Level Miami Center
Tue 12:54:15 PM 27.3672 -80.9025 343° North 401 461 19,000 -655 Level Miami Center
Tue 12:55:15 PM 27.4725 -80.9436 341° North 401 461 17,700 -2,400 Descending Miami Center
Tue 12:56:15 PM 27.5756 -80.9825 342° North 401 461 14,200 -3,150 Descending Miami Center
Tue 12:57:15 PM 27.6769 -81.0167 343° North 395 455 11,400 -1,850 Descending Miami Center
Tue 12:58:15 PM 27.7678 -81.0503 342° North 374 430 10,500 -971 Descending Miami Center
Tue 01:00:45 PM 27.9500 -81.1167 342° North 279 321 8,000 -711 Descending Orlando TRACON
Tue 01:01:46 PM 28.0333 -81.1333 350° North 259 298 8,000 -524 Level Orlando TRACON
Tue 01:02:51 PM 28.1000 -81.1333 360° North 226 260 6,900 -1,350 Descending Orlando TRACON
Tue 01:03:46 PM 28.1167 -81.2000 286° West 231 266 5,300 -1,438 Descending Orlando TRACON
Tue 01:04:52 PM 28.1333 -81.2667 286° West 229 264 4,000 -619 Descending Orlando TRACON
Tue 01:05:52 PM 28.1833 -81.3167 319° Northwest 218 251 4,000 -149 Level Orlando TRACON
Tue 01:06:53 PM 28.2333 -81.3167 360° North 196 226 3,700 -295 Descending Orlando TRACON

Login

Don't have an account? Register now (free) for customized features, flight alerts, and more!